Skagway, AK

1:25 PM AKDT on March 27, 2017 (GMT -0800)
Skagway

Weather History for PAGY - February, 2013

Change the Weather History Date:

Sunday, February 3, 2013

  Actual Average Record
Temperature  
Mean Temperature 38 °F -  
Max Temperature 41 °F 31 °F 45 °F (1984)
Min Temperature 35 °F 23 °F -14 °F (1968)
Degree Days  
Heating Degree Days 27    
Moisture  
Dew Point 33 °F    
Average Humidity 82    
Maximum Humidity 93    
Minimum Humidity 73    
Precipitation  
Precipitation 0.05 in - - ()
Sea Level Pressure  
Sea Level Pressure 29.62 in    
Wind  
Wind Speed 10 mph (South)    
Max Wind Speed 28 mph    
Max Gust Speed 36 mph    
Visibility 10 miles    
Events Rain    
Averages and records for this station are not official NWS values.
T = Trace of Precipitation, MM = Missing Value Source: NWS Daily Summary

Daily Weather History Graph

Daily Weather History Graph

Search for Another Location

Airport or City:

Trip Planner

Search our weather history database for the weather conditions in past years. The results will help you decide how hot, cold, wet, or windy it might be!

Date:

Astronomy

Feb. 03, 2013 Rise Set
Actual Time 8:06 AM AKST 4:24 PM AKST
Civil Twilight 7:20 AM AKST 5:10 PM AKST
Nautical Twilight 6:31 AM AKST 5:59 PM AKST
Astronomical Twilight 5:43 AM AKST 6:47 PM AKST
Moon 1:50 AM AKST (2/3) 9:55 AM AKST (2/3)
Length of Visible Light 9h 49m
Length of Day
8h 18m
Waning Gibbous, 47% of the Moon is Illuminated
Feb 3
Waning Gibbous
Feb 9
New
Feb 17
First Quarter
Feb 25
Full
Mar 4
Last Quarter

Hourly Weather History & Observations

Time (AKST) Temp. Windchill Dew Point Humidity Pressure Visibility Wind Dir Wind Speed Gust Speed Precip Events Conditions
12:53 AM 39.9 °F 35.8 °F 35.1 °F 83% 29.78 in 10.0 mi Variable 5.8 mph - 0.00 in Rain Light Rain
1:53 AM 41.0 °F 39.0 °F 35.1 °F 79% 29.76 in 10.0 mi Variable 3.5 mph 19.6 mph 0.00 in   Overcast
3:53 AM 37.0 °F - 33.1 °F 86% 29.70 in 10.0 mi Calm Calm - 0.00 in Rain Light Rain
4:53 AM 36.0 °F 32.1 °F 34.0 °F 93% 29.66 in 10.0 mi NNE 4.6 mph - 0.00 in Rain Light Rain
5:15 AM 35.6 °F 32.8 °F 33.8 °F 93% 29.65 in 10.0 mi NNE 3.5 mph - 0.01 in Rain Light Rain
5:53 AM 35.1 °F 31.0 °F 33.1 °F 92% 29.63 in 10.0 mi East 4.6 mph - 0.02 in Rain Light Rain
6:53 AM 36.0 °F 32.1 °F 33.1 °F 89% 29.61 in 10.0 mi NE 4.6 mph - 0.01 in Rain Light Rain
7:53 AM 35.1 °F 31.0 °F 33.1 °F 92% 29.58 in 10.0 mi North 4.6 mph - 0.01 in   Overcast
8:16 AM 35.6 °F 31.7 °F 33.8 °F 93% 29.57 in 10.0 mi ENE 4.6 mph - 0.00 in   Overcast
8:53 AM 35.1 °F 31.0 °F 33.1 °F 92% 29.56 in 10.0 mi East 4.6 mph - 0.00 in Rain Light Rain
9:53 AM 39.0 °F 31.0 °F 34.0 °F 82% 29.56 in 10.0 mi South 13.8 mph 18.4 mph 0.01 in Rain Light Rain
10:53 AM 39.0 °F 30.3 °F 34.0 °F 82% 29.55 in 10.0 mi SSW 16.1 mph 26.5 mph 0.00 in   Overcast
11:53 AM 39.9 °F 31.1 °F 33.1 °F 77% 29.54 in 10.0 mi SSW 17.3 mph 32.2 mph N/A   Overcast
12:53 PM 39.0 °F 27.6 °F 33.1 °F 79% 29.55 in 10.0 mi SSW 27.6 mph 35.7 mph N/A   Overcast
1:53 PM 39.9 °F 30.5 °F 33.1 °F 77% 29.56 in 10.0 mi SSW 19.6 mph 27.6 mph N/A   Mostly Cloudy
2:53 PM 39.9 °F 29.2 °F 33.1 °F 77% 29.57 in 10.0 mi SSW 25.3 mph 35.7 mph N/A   Mostly Cloudy
3:53 PM 39.0 °F 29.0 °F 33.1 °F 79% 29.58 in 10.0 mi SSW 20.7 mph 31.1 mph N/A   Scattered Clouds
4:53 PM 39.0 °F 30.3 °F 30.9 °F 73% 29.58 in 10.0 mi SSW 16.1 mph 24.2 mph N/A   Mostly Cloudy
5:53 PM 39.0 °F 31.0 °F 30.9 °F 73% 29.59 in 10.0 mi SSW 13.8 mph 25.3 mph N/A   Overcast
6:53 PM 39.0 °F 30.3 °F 30.9 °F 73% 29.61 in 10.0 mi SSW 16.1 mph 31.1 mph N/A   Overcast
7:53 PM 37.9 °F 27.6 °F 30.9 °F 76% 29.63 in 10.0 mi SSW 20.7 mph 32.2 mph N/A   Overcast
8:53 PM 39.0 °F 28.5 °F 30.9 °F 73% 29.64 in 10.0 mi SSW 23.0 mph 29.9 mph N/A   Mostly Cloudy
9:53 PM 39.0 °F 28.5 °F 30.9 °F 73% 29.66 in 10.0 mi SSW 23.0 mph 29.9 mph N/A   Overcast
10:53 PM 37.9 °F 27.3 °F 30.9 °F 76% 29.68 in 10.0 mi SSW 21.9 mph 29.9 mph N/A   Overcast
11:53 PM 37.9 °F 28.2 °F 30.9 °F 76% 29.70 in 10.0 mi SSW 18.4 mph 27.6 mph N/A   Overcast